NOAA 16 DEB, 41285

Orbit data source: Space-Track

NOAA 16 DEB, 41285 is space debris in SSO originally from a launch on Thu, 21 Sep 2000 UTC launched from the Air Force Western Test Range (AFWTR). Debris objects in space refer to the collection of defunct objects orbiting the Earth. Examples of debris include non-operational satellites, rocket bodies, and fragments generated from explosions, collisions, or faulty payload assembly.

Loading next visibility...
Identifier
41285, 2000-055GM
Orbit
SSO
Country
Flag of USUS
Related business
Manufacturer
Unknown
Mission
Spacecraft
Bus & Motor
Unknown
Mass
Unknown
Launch date (UTC)
2000-09-21 (25 years ago)
Launch vehicle
Unknown
Launch site
Air Force Western Test Range (AFWTR)
Object type
Payload
Rocket body
Debris
Shape & HBR
Unknown shape, 0.1 m
Radar Cross Section
Small (<0.1 m²)

Expand to show TLE details & history
Last TLE update: 4 days ago

TLE from 4 days ago
0 NOAA 16 DEB
1 41285U 00055GM  25293.61629610  .00005882  00000-0  24878-2 0  9996
2 41285  98.6801 357.9302 0048669 347.5598  12.4376 14.25233239507332
Epoch: 2025-10-20T14:47Z
TLE epoch observation values (Epoch: 2025-10-20T14:47:27.983Z)
Latitude
-0.00004°
Longitude
106.74756°
Altitude
776.48 km
Speed
7.483 km/s
True Right ascension
23h 51m 43s
True Declination
0° 00' 00"
Sunlit
Object was in full shadow at epoch
Visualization orbit readout
Latitude
Unknown
Longitude
Unknown
Altitude
Unknown
Speed
Unknown
Apparent Right ascension
Unknown
Apparent Declination
Unknown
Sunlit
N/A
Visualization observer readout
Local Sidereal Time
13:54:35
Azimuth
Unknown
Elevation
Unknown
Doppler factor
Unknown
Orbital elements
Apogee altitude
839.818 km
Perigee altitude
769.9 km
Semi-major axis
7,182.996 km
Eccentricity
0.00487
Inclination
98.6801°
RAAN
357.9302°
Arg. of periapsis
347.5598°
True anomaly
12.55843°
Mean anomaly
12.4376°
Eccentric anomaly
12.49795°
Mean motion
3.56521 °/min
Orbital period
100.98 mins
BSTAR
0.0024878
Loading maneuver chart data...
Computing Atmospheric mass density...

Documentation

Showing up to 5 results
|